Location: Asheville, NC
(35.6000°N, 82.5500°W)
Time: 04:30:23
(UTC-04:00)

UWE-3 - Pass Details

Date: 12 January 2018
Orbit: 584 x 685 km, 97.6° (Epoch: 17 July)

Event Time Altitude Azimuth Distance (km) Brightness Sun altitude
Rises 19:22:26 0° 165° (SSE) 2,835 ? -20.9°
Reaches altitude 10° 19:24:34 10° 164° (SSE) 1,949 ? -21.3°
Maximum altitude 19:28:48 82° 77° (ENE) 630 ? -22.2°
Drops below altitude 10° 19:33:12 10° 350° (N) 2,023 ? -23.1°
Sets 19:35:27 0° 350° (N) 2,953 ? -23.5°
